Time,TemperatureF,DewpointF,PressureIn,WindDirection,WindDirectionDegrees,WindSpeedMPH,WindSpeedGustMPH,Humidity,HourlyPrecipIn,Conditions,Clouds,dailyrainin,SoftwareType,DateUTC
2013-02-06 00:02:00,60.0,-99.9,30.11,SSW,205,2.0,3.0,-999,-99.99,,,-99.99,,2013-02-06 05:02:00,
2013-02-06 00:12:00,60.0,-99.9,30.11,SSW,197,3.0,5.0,-999,-99.99,,,-99.99,,2013-02-06 05:12:00,
2013-02-06 00:22:00,60.0,-99.9,30.12,SSW,209,4.0,5.0,-999,-99.99,,,-99.99,,2013-02-06 05:22:00,
2013-02-06 00:32:00,60.0,-99.9,30.11,SSW,202,3.0,5.0,-999,-99.99,,,-99.99,,2013-02-06 05:32:00,
2013-02-06 00:42:00,59.0,-99.9,30.12,SW,235,3.0,4.0,-999,-99.99,,,-99.99,,2013-02-06 05:42:00,
2013-02-06 00:53:00,59.0,-99.9,30.12,SW,226,3.0,4.0,-999,-99.99,,,-99.99,,2013-02-06 05:53:00,
2013-02-06 01:02:00,59.0,-99.9,30.11,SW,224,1.0,3.0,-999,-99.99,,,-99.99,,2013-02-06 06:02:00,
2013-02-06 01:11:00,59.0,-99.9,30.11,WSW,245,2.0,2.0,-999,-99.99,,,-99.99,,2013-02-06 06:11:00,
2013-02-06 01:22:00,59.0,-99.9,30.11,SSW,213,3.0,4.0,-999,-99.99,,,-99.99,,2013-02-06 06:22:00,
2013-02-06 01:32:00,59.0,-99.9,30.11,SW,218,4.0,6.0,-999,-99.99,,,-99.99,,2013-02-06 06:32:00,
2013-02-06 01:42:00,59.0,-99.9,30.11,SW,220,4.0,5.0,-999,-99.99,,,-99.99,,2013-02-06 06:42:00,
2013-02-06 01:52:00,59.0,-99.9,30.11,SW,214,4.0,6.0,-999,-99.99,,,-99.99,,2013-02-06 06:52:00,
2013-02-06 02:02:00,59.0,-99.9,30.11,SW,220,5.0,6.0,-999,-99.99,,,-99.99,,2013-02-06 07:02:00,
2013-02-06 02:11:00,59.0,-99.9,30.11,SW,227,4.0,6.0,-999,-99.99,,,-99.99,,2013-02-06 07:11:00,
2013-02-06 02:22:00,59.0,-99.9,30.11,SW,220,4.0,6.0,-999,-99.99,,,-99.99,,2013-02-06 07:22:00,
2013-02-06 02:32:00,59.0,-99.9,30.11,SW,223,5.0,6.0,-999,-99.99,,,-99.99,,2013-02-06 07:32:00,
2013-02-06 02:42:00,59.0,-99.9,30.11,SW,216,3.0,6.0,-999,-99.99,,,-99.99,,2013-02-06 07:42:00,
2013-02-06 02:52:00,59.0,-99.9,30.11,SW,220,4.0,4.0,-999,-99.99,,,-99.99,,2013-02-06 07:52:00,
2013-02-06 03:01:00,59.0,-99.9,30.10,SSW,195,6.0,7.0,-999,-99.99,,,-99.99,,2013-02-06 08:01:00,
2013-02-06 03:11:00,59.0,-99.9,30.11,SSW,212,6.0,9.0,-999,-99.99,,,-99.99,,2013-02-06 08:11:00,
2013-02-06 03:21:00,60.0,-99.9,30.11,SW,219,7.0,9.0,-999,-99.99,,,-99.99,,2013-02-06 08:21:00,
2013-02-06 03:32:00,59.0,-99.9,30.11,SW,223,4.0,6.0,-999,-99.99,,,-99.99,,2013-02-06 08:32:00,
2013-02-06 03:42:00,59.0,-99.9,30.11,SW,234,2.0,5.0,-999,-99.99,,,-99.99,,2013-02-06 08:42:00,
2013-02-06 03:53:00,59.0,-99.9,30.11,South,181,2.0,3.0,-999,-99.99,,,-99.99,,2013-02-06 08:53:00,
2013-02-06 04:02:00,59.0,-99.9,30.11,SW,220,2.0,4.0,-999,-99.99,,,-99.99,,2013-02-06 09:02:00,
2013-02-06 04:11:00,60.0,-99.9,30.11,SE,136,3.0,4.0,-999,-99.99,,,-99.99,,2013-02-06 09:11:00,
2013-02-06 04:22:00,60.0,-99.9,30.11,WSW,252,4.0,6.0,-999,-99.99,,,-99.99,,2013-02-06 09:22:00,
2013-02-06 04:32:00,60.0,-99.9,30.12,WSW,241,2.0,4.0,-999,-99.99,,,-99.99,,2013-02-06 09:32:00,
2013-02-06 04:42:00,59.0,-99.9,30.11,NNE,12,2.0,3.0,-999,-99.99,,,-99.99,,2013-02-06 09:42:00,
2013-02-06 04:52:00,59.0,-99.9,30.11,North,4,0.0,3.0,-999,-99.99,,,-99.99,,2013-02-06 09:52:00,
2013-02-06 05:01:00,59.0,-99.9,30.12,ENE,66,-999.0,1.0,-999,-99.99,,,-99.99,,2013-02-06 10:01:00,
2013-02-06 05:11:00,59.0,-99.9,30.13,West,265,2.0,2.0,-999,-99.99,,,-99.99,,2013-02-06 10:11:00,
2013-02-06 05:22:00,59.0,-99.9,30.13,NW,322,1.0,1.0,-999,-99.99,,,-99.99,,2013-02-06 10:22:00,
2013-02-06 05:32:00,59.0,-99.9,30.12,NW,318,-999.0,1.0,-999,-99.99,,,-99.99,,2013-02-06 10:32:00,
2013-02-06 05:42:00,59.0,-99.9,30.13,WSW,253,-999.0,2.0,-999,-99.99,,,-99.99,,2013-02-06 10:42:00,
2013-02-06 05:52:00,59.0,-99.9,30.13,WSW,245,2.0,3.0,-999,-99.99,,,-99.99,,2013-02-06 10:52:00,
2013-02-06 06:02:00,59.0,-99.9,30.12,SW,218,2.0,3.0,-999,-99.99,,,-99.99,,2013-02-06 11:02:00,
2013-02-06 06:11:00,59.0,-99.9,30.13,NNE,17,-999.0,4.0,-999,-99.99,,,-99.99,,2013-02-06 11:11:00,
2013-02-06 06:22:00,59.0,-99.9,30.13,North,6,3.0,4.0,-999,-99.99,,,-99.99,,2013-02-06 11:22:00,
2013-02-06 06:33:00,59.0,-99.9,30.14,West,275,2.0,3.0,-999,-99.99,,,-99.99,,2013-02-06 11:33:00,
2013-02-06 06:42:00,59.0,-99.9,30.14,WNW,282,3.0,3.0,-999,-99.99,,,-99.99,,2013-02-06 11:42:00,
2013-02-06 06:53:00,59.0,-99.9,30.15,SW,231,2.0,3.0,-999,-99.99,,,-99.99,,2013-02-06 11:53:00,
2013-02-06 07:02:00,59.0,-99.9,30.15,SW,225,3.0,3.0,-999,-99.99,,,-99.99,,2013-02-06 12:02:00,
2013-02-06 07:12:00,60.0,-99.9,30.16,SW,230,2.0,4.0,-999,-99.99,,,-99.99,,2013-02-06 12:12:00,
2013-02-06 07:22:00,60.0,-99.9,30.16,West,259,3.0,3.0,-999,-99.99,,,-99.99,,2013-02-06 12:22:00,
2013-02-06 07:32:00,60.0,-99.9,30.16,NW,307,4.0,4.0,-999,-99.99,,,-99.99,,2013-02-06 12:32:00,
2013-02-06 07:42:00,60.0,-99.9,30.17,NNW,333,8.0,8.0,-999,-99.99,,,-99.99,,2013-02-06 12:42:00,
2013-02-06 07:52:00,60.0,-99.9,30.17,NNW,336,9.0,10.0,-999,-99.99,,,-99.99,,2013-02-06 12:52:00,
2013-02-06 08:02:00,59.0,-99.9,30.18,NNW,346,4.0,7.0,-999,-99.99,,,-99.99,,2013-02-06 13:02:00,
2013-02-06 08:12:00,59.0,-99.9,30.18,NNW,337,4.0,5.0,-999,-99.99,,,-99.99,,2013-02-06 13:12:00,
2013-02-06 08:22:00,59.0,-99.9,30.18,NNW,338,4.0,4.0,-999,-99.99,,,-99.99,,2013-02-06 13:22:00,
2013-02-06 08:32:00,59.0,-99.9,30.18,WNW,302,3.0,4.0,-999,-99.99,,,-99.99,,2013-02-06 13:32:00,
2013-02-06 08:42:00,59.0,-99.9,30.18,SW,226,5.0,6.0,-999,-99.99,,,-99.99,,2013-02-06 13:42:00,
2013-02-06 08:52:00,60.0,-99.9,30.18,SW,217,6.0,7.0,-999,-99.99,,,-99.99,,2013-02-06 13:52:00,
2013-02-06 09:02:00,60.0,-99.9,30.19,WSW,250,6.0,9.0,-999,-99.99,,,-99.99,,2013-02-06 14:02:00,
2013-02-06 09:11:00,60.0,-99.9,30.19,WSW,240,4.0,5.0,-999,-99.99,,,-99.99,,2013-02-06 14:11:00,
2013-02-06 09:22:00,60.0,-99.9,30.19,WSW,243,3.0,5.0,-999,-99.99,,,-99.99,,2013-02-06 14:22:00,
2013-02-06 09:32:00,60.0,-99.9,30.19,WSW,243,3.0,5.0,-999,-99.99,,,-99.99,,2013-02-06 14:32:00,
2013-02-06 09:42:00,61.0,-99.9,30.19,WSW,252,2.0,3.0,-999,-99.99,,,-99.99,,2013-02-06 14:42:00,
2013-02-06 09:52:00,61.0,-99.9,30.19,North,351,-999.0,3.0,-999,-99.99,,,-99.99,,2013-02-06 14:52:00,
2013-02-06 10:02:00,61.0,-99.9,30.19,North,351,-999.0,3.0,-999,-99.99,,,-99.99,,2013-02-06 15:02:00,
2013-02-06 10:11:00,61.0,-99.9,30.19,North,357,3.0,5.0,-999,-99.99,,,-99.99,,2013-02-06 15:11:00,
2013-02-06 10:21:00,61.0,-99.9,30.19,ENE,60,1.0,1.0,-999,-99.99,,,-99.99,,2013-02-06 15:21:00,
2013-02-06 10:32:00,61.0,-99.9,30.20,NE,56,3.0,4.0,-999,-99.99,,,-99.99,,2013-02-06 15:32:00,
2013-02-06 10:42:00,62.0,-99.9,30.21,NNE,22,4.0,5.0,-999,-99.99,,,-99.99,,2013-02-06 15:42:00,
2013-02-06 10:52:00,62.0,-99.9,30.21,North,4,3.0,4.0,-999,-99.99,,,-99.99,,2013-02-06 15:52:00,
2013-02-06 11:02:00,62.0,-99.9,30.21,NE,43,2.0,2.0,-999,-99.99,,,-99.99,,2013-02-06 16:02:00,
2013-02-06 11:11:00,62.0,-99.9,30.21,ENE,73,2.0,3.0,-999,-99.99,,,-99.99,,2013-02-06 16:11:00,
2013-02-06 11:22:00,63.0,-99.9,30.21,ENE,67,1.0,2.0,-999,-99.99,,,-99.99,,2013-02-06 16:22:00,
2013-02-06 11:32:00,63.0,-99.9,30.21,ESE,109,2.0,2.0,-999,-99.99,,,-99.99,,2013-02-06 16:32:00,
2013-02-06 11:42:00,63.0,-99.9,30.21,East,94,4.0,5.0,-999,-99.99,,,-99.99,,2013-02-06 16:42:00,
2013-02-06 11:52:00,62.0,-99.9,30.21,East,94,4.0,6.0,-999,-99.99,,,-99.99,,2013-02-06 16:52:00,
2013-02-06 12:02:00,62.0,-99.9,30.21,East,99,5.0,7.0,-999,-99.99,,,-99.99,,2013-02-06 17:02:00,
2013-02-06 12:12:00,63.0,-99.9,30.20,East,84,4.0,5.0,-999,-99.99,,,-99.99,,2013-02-06 17:12:00,
2013-02-06 12:22:00,61.0,-99.9,30.20,ENE,66,6.0,7.0,-999,-99.99,,,-99.99,,2013-02-06 17:22:00,
2013-02-06 12:33:00,61.0,-99.9,30.20,ENE,70,5.0,6.0,-999,-99.99,,,-99.99,,2013-02-06 17:33:00,
2013-02-06 12:42:00,61.0,-99.9,30.20,ENE,67,6.0,6.0,-999,-99.99,,,-99.99,,2013-02-06 17:42:00,
2013-02-06 12:53:00,61.0,-99.9,30.20,ENE,66,6.0,7.0,-999,-99.99,,,-99.99,,2013-02-06 17:53:00,
2013-02-06 13:02:00,60.0,-99.9,30.20,ENE,68,8.0,9.0,-999,-99.99,,,-99.99,,2013-02-06 18:02:00,
2013-02-06 13:12:00,60.0,-99.9,30.19,ENE,65,7.0,9.0,-999,-99.99,,,-99.99,,2013-02-06 18:12:00,
2013-02-06 13:23:00,61.0,-99.9,30.19,NE,51,10.0,11.0,-999,-99.99,,,-99.99,,2013-02-06 18:23:00,
2013-02-06 13:33:00,61.0,-99.9,30.18,ENE,61,8.0,10.0,-999,-99.99,,,-99.99,,2013-02-06 18:33:00,
2013-02-06 13:42:00,61.0,-99.9,30.18,ENE,58,8.0,10.0,-999,-99.99,,,-99.99,,2013-02-06 18:42:00,
2013-02-06 13:52:00,61.0,-99.9,30.18,ENE,57,7.0,9.0,-999,-99.99,,,-99.99,,2013-02-06 18:52:00,
2013-02-06 14:02:00,61.0,-99.9,30.17,ENE,57,7.0,9.0,-999,-99.99,,,-99.99,,2013-02-06 19:02:00,
2013-02-06 14:11:00,62.0,-99.9,30.17,NE,47,9.0,11.0,-999,-99.99,,,-99.99,,2013-02-06 19:11:00,
2013-02-06 14:22:00,62.0,-99.9,30.16,NE,46,11.0,12.0,-999,-99.99,,,-99.99,,2013-02-06 19:22:00,
2013-02-06 14:32:00,61.0,-99.9,30.16,NE,51,10.0,11.0,-999,-99.99,,,-99.99,,2013-02-06 19:32:00,
2013-02-06 14:42:00,61.0,-99.9,30.16,ENE,65,8.0,9.0,-999,-99.99,,,-99.99,,2013-02-06 19:42:00,
2013-02-06 14:52:00,61.0,-99.9,30.16,ENE,72,8.0,9.0,-999,-99.99,,,-99.99,,2013-02-06 19:52:00,
2013-02-06 15:01:00,61.0,-99.9,30.16,ENE,69,8.0,9.0,-999,-99.99,,,-99.99,,2013-02-06 20:01:00,
2013-02-06 15:11:00,61.0,-99.9,30.16,ENE,73,8.0,11.0,-999,-99.99,,,-99.99,,2013-02-06 20:11:00,
2013-02-06 15:22:00,61.0,-99.9,30.16,ENE,75,8.0,11.0,-999,-99.99,,,-99.99,,2013-02-06 20:22:00,
2013-02-06 15:32:00,61.0,-99.9,30.15,ENE,67,10.0,11.0,-999,-99.99,,,-99.99,,2013-02-06 20:32:00,
2013-02-06 15:42:00,61.0,-99.9,30.16,ENE,65,9.0,10.0,-999,-99.99,,,-99.99,,2013-02-06 20:42:00,
2013-02-06 15:52:00,61.0,-99.9,30.15,ENE,68,9.0,11.0,-999,-99.99,,,-99.99,,2013-02-06 20:52:00,
2013-02-06 16:02:00,61.0,-99.9,30.15,ENE,66,8.0,9.0,-999,-99.99,,,-99.99,,2013-02-06 21:02:00,
2013-02-06 16:11:00,61.0,-99.9,30.16,ENE,78,7.0,10.0,-999,-99.99,,,-99.99,,2013-02-06 21:11:00,
2013-02-06 16:22:00,61.0,-99.9,30.16,ENE,67,8.0,9.0,-999,-99.99,,,-99.99,,2013-02-06 21:22:00,
2013-02-06 16:32:00,61.0,-99.9,30.16,ENE,69,6.0,9.0,-999,-99.99,,,-99.99,,2013-02-06 21:32:00,
2013-02-06 16:42:00,61.0,-99.9,30.16,ENE,70,6.0,8.0,-999,-99.99,,,-99.99,,2013-02-06 21:42:00,
2013-02-06 16:52:00,61.0,-99.9,30.16,ENE,60,6.0,7.0,-999,-99.99,,,-99.99,,2013-02-06 21:52:00,
2013-02-06 17:01:00,61.0,-99.9,30.17,ENE,69,5.0,6.0,-999,-99.99,,,-99.99,,2013-02-06 22:01:00,
2013-02-06 17:11:00,61.0,-99.9,30.16,ENE,73,6.0,7.0,-999,-99.99,,,-99.99,,2013-02-06 22:11:00,
2013-02-06 17:22:00,61.0,-99.9,30.16,ENE,70,7.0,8.0,-999,-99.99,,,-99.99,,2013-02-06 22:22:00,
2013-02-06 17:32:00,61.0,-99.9,30.16,ENE,73,6.0,9.0,-999,-99.99,,,-99.99,,2013-02-06 22:32:00,
2013-02-06 17:42:00,61.0,-99.9,30.17,ENE,72,6.0,7.0,-999,-99.99,,,-99.99,,2013-02-06 22:42:00,
2013-02-06 17:52:00,62.0,-99.9,30.16,ENE,78,6.0,9.0,-999,-99.99,,,-99.99,,2013-02-06 22:52:00,
2013-02-06 18:01:00,62.0,-99.9,30.17,ENE,78,6.0,8.0,-999,-99.99,,,-99.99,,2013-02-06 23:01:00,
2013-02-06 18:11:00,62.0,-99.9,30.17,East,87,5.0,7.0,-999,-99.99,,,-99.99,,2013-02-06 23:11:00,
2013-02-06 18:21:00,62.0,-99.9,30.16,East,84,6.0,8.0,-999,-99.99,,,-99.99,,2013-02-06 23:21:00,
2013-02-06 18:32:00,62.0,-99.9,30.16,ENE,78,6.0,7.0,-999,-99.99,,,-99.99,,2013-02-06 23:32:00,
2013-02-06 18:42:00,62.0,-99.9,30.17,ENE,74,5.0,6.0,-999,-99.99,,,-99.99,,2013-02-06 23:42:00,
2013-02-06 18:52:00,61.0,-99.9,30.17,ENE,76,4.0,6.0,-999,-99.99,,,-99.99,,2013-02-06 23:52:00,
2013-02-06 19:02:00,61.0,-99.9,30.17,ENE,66,5.0,6.0,-999,-99.99,,,-99.99,,2013-02-07 00:02:00,
2013-02-06 19:11:00,61.0,-99.9,30.17,ENE,71,4.0,5.0,-999,-99.99,,,-99.99,,2013-02-07 00:11:00,
2013-02-06 19:22:00,61.0,-99.9,30.17,ENE,66,3.0,4.0,-999,-99.99,,,-99.99,,2013-02-07 00:22:00,
2013-02-06 19:32:00,61.0,-99.9,30.17,ENE,72,6.0,7.0,-999,-99.99,,,-99.99,,2013-02-07 00:32:00,
2013-02-06 19:42:00,61.0,-99.9,30.17,ENE,77,7.0,9.0,-999,-99.99,,,-99.99,,2013-02-07 00:42:00,
2013-02-06 19:52:00,61.0,-99.9,30.17,ENE,77,6.0,7.0,-999,-99.99,,,-99.99,,2013-02-07 00:52:00,
2013-02-06 20:01:00,61.0,-99.9,30.17,East,83,5.0,8.0,-999,-99.99,,,-99.99,,2013-02-07 01:01:00,
2013-02-06 20:11:00,61.0,-99.9,30.17,East,86,6.0,9.0,-999,-99.99,,,-99.99,,2013-02-07 01:11:00,
2013-02-06 20:21:00,61.0,-99.9,30.17,East,84,7.0,9.0,-999,-99.99,,,-99.99,,2013-02-07 01:21:00,
2013-02-06 20:32:00,61.0,-99.9,30.17,East,81,6.0,8.0,-999,-99.99,,,-99.99,,2013-02-07 01:32:00,
2013-02-06 20:42:00,61.0,-99.9,30.17,East,81,7.0,9.0,-999,-99.99,,,-99.99,,2013-02-07 01:42:00,
2013-02-06 20:52:00,61.0,-99.9,30.17,East,84,7.0,11.0,-999,-99.99,,,-99.99,,2013-02-07 01:52:00,
2013-02-06 21:02:00,62.0,-99.9,30.17,East,84,9.0,12.0,-999,-99.99,,,-99.99,,2013-02-07 02:02:00,
2013-02-06 21:12:00,62.0,-99.9,30.18,East,81,6.0,10.0,-999,-99.99,,,-99.99,,2013-02-07 02:12:00,
2013-02-06 21:21:00,62.0,-99.9,30.18,East,84,8.0,11.0,-999,-99.99,,,-99.99,,2013-02-07 02:21:00,
2013-02-06 21:32:00,62.0,-99.9,30.18,East,82,8.0,11.0,-999,-99.99,,,-99.99,,2013-02-07 02:32:00,
2013-02-06 21:42:00,62.0,-99.9,30.18,East,82,8.0,11.0,-999,-99.99,,,-99.99,,2013-02-07 02:42:00,
2013-02-06 21:52:00,62.0,-99.9,30.18,East,82,8.0,11.0,-999,-99.99,,,-99.99,,2013-02-07 02:52:00,
2013-02-06 22:02:00,62.0,-99.9,30.18,ENE,78,6.0,8.0,-999,-99.99,,,-99.99,,2013-02-07 03:02:00,
2013-02-06 22:11:00,62.0,-99.9,30.18,East,79,6.0,8.0,-999,-99.99,,,-99.99,,2013-02-07 03:11:00,
2013-02-06 22:22:00,62.0,-99.9,30.19,ENE,74,5.0,8.0,-999,-99.99,,,-99.99,,2013-02-07 03:22:00,
2013-02-06 22:32:00,62.0,-99.9,30.19,East,80,6.0,7.0,-999,-99.99,,,-99.99,,2013-02-07 03:32:00,
2013-02-06 22:42:00,62.0,-99.9,30.18,ENE,66,4.0,5.0,-999,-99.99,,,-99.99,,2013-02-07 03:42:00,
2013-02-06 22:52:00,62.0,-99.9,30.19,ENE,60,3.0,5.0,-999,-99.99,,,-99.99,,2013-02-07 03:52:00,
2013-02-06 23:01:00,62.0,-99.9,30.18,ENE,70,5.0,8.0,-999,-99.99,,,-99.99,,2013-02-07 04:01:00,
2013-02-06 23:11:00,62.0,-99.9,30.19,NE,54,4.0,6.0,-999,-99.99,,,-99.99,,2013-02-07 04:11:00,
2013-02-06 23:22:00,62.0,-99.9,30.18,ENE,57,5.0,6.0,-999,-99.99,,,-99.99,,2013-02-07 04:22:00,
2013-02-06 23:32:00,62.0,-99.9,30.18,NE,51,5.0,6.0,-999,-99.99,,,-99.99,,2013-02-07 04:32:00,
2013-02-06 23:42:00,62.0,-99.9,30.18,NE,52,5.0,6.0,-999,-99.99,,,-99.99,,2013-02-07 04:42:00,
2013-02-06 23:53:00,61.0,-99.9,30.18,NE,54,5.0,6.0,-999,-99.99,,,-99.99,,2013-02-07 04:53:00,